• Join FlightAware (Why Join?)
  • Login
  • US Flag 
03:44PM EST


 

Airport Tracker/Info


-or-


 

Live Flight TrackerFlight Track Log ✈ ASQ4485 ✈ 02-Apr-2014 ✈ KOMA - KIAH

Flight Track Log - Related Links

Times and Time Zones

All times are in EDT time to prevent confusion due to time zone crossing. See the ASQ4485 flight status page for this flight to view local times or setup timezone preferences in your user account.

Time Position Orientation Groundspeed Altitude Reporting Facility
EDT Latitude Longitude Course Direction KTS MPH feet Rate Location/Type
12:24PM 41.2906 -95.8894 187° South 141 162 1,800  Level Minneapolis Center
12:25PM 41.2328 -95.8992 187° South 204 235 4,700 2,357 Climbing Minneapolis Center
12:26PM 41.1958 -95.9086 191° South 200 230 6,200 2,198 Climbing Minneapolis Center
12:27PM 41.1250 -95.9206 187° South 230 265 8,400 2,195 Climbing Minneapolis Center
12:28PM 41.0478 -95.9058 172° South 262 302 10,700 1,854 Climbing Minneapolis Center
12:29PM 40.9636 -95.9167 186° South 312 359 12,200 1,694 Climbing Minneapolis Center
12:30PM 40.8808 -95.9633 203° Southwest 321 369 14,200 2,146 Climbing Minneapolis Center
12:31PM 40.7981 -96.0075 202° Southwest 321 369 16,600 2,098 Climbing Minneapolis Center
12:32PM 40.7186 -96.0508 202° Southwest 315 362 18,500 1,742 Climbing Minneapolis Center
12:33PM 40.6372 -96.0947 202° Southwest 314 361 20,200 1,854 Climbing Minneapolis Center
12:34PM 40.5375 -96.1494 203° Southwest 317 365 22,300 1,951 Climbing Minneapolis Center
12:35PM 40.4544 -96.1925 202° Southwest 320 368 24,200 1,742 Climbing Minneapolis Center
12:36PM 40.3728 -96.2358 202° Southwest 320 368 25,900 1,597 Climbing Minneapolis Center
12:37PM 40.2914 -96.2814 203° Southwest 320 368 27,500 1,463 Climbing Minneapolis Center
12:38PM 40.2089 -96.3244 202° Southwest 319 367 28,900 1,415 Climbing Minneapolis Center
12:39PM 40.1164 -96.3728 202° Southwest 319 367 30,400 1,452 Climbing Kansas City Center
12:40PM 40.0294 -96.4003 194° South 322 371 31,900 1,381 Climbing Kansas City Center
12:41PM 39.9394 -96.4253 192° South 326 375 33,300 1,016 Climbing Kansas City Center
12:42PM 39.8506 -96.4503 192° South 326 375 34,000 344 Climbing Kansas City Center
12:43PM 39.7389 -96.4808 192° South 353 406 34,000  Level Kansas City Center
12:44PM 39.6417 -96.5072 192° South 365 420 34,000  Level Kansas City Center
12:45PM 39.5417 -96.5344 192° South 377 434 34,000  Level Kansas City Center
12:46PM 39.4242 -96.5658 192° South 382 440 34,000  Level Kansas City Center
12:47PM 39.3217 -96.5936 192° South 386 444 34,000  Level Kansas City Center
12:48PM 39.2014 -96.6261 192° South 393 452 34,000  Level Kansas City Center
12:49PM 39.0983 -96.6539 192° South 394 453 34,000  Level Kansas City Center
12:50PM 38.9892 -96.6836 192° South 395 455 34,000  Level Kansas City Center
12:51PM 38.8792 -96.7114 191° South 399 459 34,000  Level Kansas City Center
12:52PM 38.7700 -96.7406 192° South 400 460 34,000  Level Kansas City Center
12:53PM 38.6461 -96.7742 192° South 399 459 34,000  Level Kansas City Center
12:54PM 38.5267 -96.8058 192° South 394 453 34,000  Level Kansas City Center
12:56PM 38.4253 -96.8322 192° South 394 453 34,000  Level Kansas City Center
12:57PM 38.3175 -96.8611 192° South 394 453 34,000  Level Kansas City Center
12:58PM 38.2089 -96.8894 192° South 394 453 34,000  Level Kansas City Center
12:59PM 38.0981 -96.9189 192° South 394 453 34,000  Level Kansas City Center
01:00PM 37.9925 -96.9458 191° South 395 455 34,000  Level Kansas City Center
01:01PM 37.8622 -96.9800 192° South 395 455 34,000  Level Kansas City Center
01:02PM 37.7531 -97.0081 191° South 396 456 34,000  Level Kansas City Center
01:03PM 37.6450 -97.0364 192° South 396 456 34,000  Level Kansas City Center
01:04PM 37.5358 -97.0639 191° South 396 456 34,000  Level Kansas City Center
01:05PM 37.4256 -97.0814 187° South 398 458 34,000  Level Kansas City Center
01:06PM 37.3103 -97.0764 178° South 409 471 34,000  Level Kansas City Center
01:07PM 37.1964 -97.0722 178° South 410 472 34,000  Level Kansas City Center
01:08PM 37.0817 -97.0675 178° South 410 472 34,000  Level Kansas City Center
01:09PM 36.9444 -97.0631 179° South 410 472 34,000  Level Kansas City Center
01:10PM 36.8325 -97.0561 177° South 405 466 34,000  Level Kansas City Center
01:11PM 36.7203 -97.0519 178° South 400 460 34,000  Level Kansas City Center
01:12PM 36.6061 -97.0467 178° South 405 466 34,000  Level Kansas City Center
01:13PM 36.4786 -97.0414 178° South 406 467 34,000 476 Level Kansas City Center
01:14PM 36.3658 -97.0375 178° South 406 467 35,000 488 Climbing Kansas City Center
01:15PM 36.2531 -97.0331 178° South 405 466 35,000  Level Kansas City Center
01:16PM 36.1353 -97.0292 178° South 415 478 35,000  Level Kansas City Center
01:17PM 36.0172 -97.0239 178° South 419 482 35,000  Level Kansas City Center
01:18PM 35.9008 -97.0178 178° South 420 483 35,000  Level Kansas City Center
01:19PM 35.7858 -97.0139 178° South 418 481 35,000  Level Kansas City Center
01:20PM 35.6483 -97.0081 178° South 414 476 35,000  Level Kansas City Center
01:21PM 35.5336 -97.0033 178° South 413 475 35,000  Level Kansas City Center
01:22PM 35.4189 -96.9989 178° South 412 474 35,000  Level Kansas City Center
01:23PM 35.3050 -96.9944 178° South 409 471 35,000  Level Kansas City Center
01:24PM 35.1919 -96.9908 179° South 407 468 35,000  Level Kansas City Center
01:26PM 35.0256 -96.9908 180° South 406 467 35,000  Level Fort Worth Center
01:27PM 34.9325 -97.0300 199° South 386 444 35,000  Level Fort Worth Center
01:28PM 34.8300 -97.0669 196° South 384 442 35,000  Level Fort Worth Center
01:29PM 34.7053 -97.1053 194° South 388 447 35,000  Level Fort Worth Center
01:30PM 34.5947 -97.0914 174° South 398 458 35,000  Level Fort Worth Center
01:31PM 34.4739 -97.0775 175° South 400 460 35,000  Level Fort Worth Center
01:32PM 34.3636 -97.0675 176° South 400 460 35,000  Level Fort Worth Center
01:33PM 34.2600 -97.0533 174° South 400 460 35,000  Level Fort Worth Center
01:34PM 34.1492 -97.0397 174° South 400 460 35,000  Level Fort Worth Center
01:35PM 34.0242 -97.0275 175° South 400 460 35,000  Level Fort Worth Center
01:36PM 33.9128 -97.0142 174° South 400 460 35,000  Level Fort Worth Center
01:37PM 33.8017 -97.0025 175° South 401 461 35,000  Level Fort Worth Center
01:38PM 33.6897 -96.9906 175° South 401 461 35,000  Level Fort Worth Center
01:39PM 33.5564 -96.9761 175° South 401 461 35,000  Level Fort Worth Center
01:40PM 33.4436 -96.9639 175° South 402 463 35,000  Level Fort Worth Center
01:41PM 33.3325 -96.9514 175° South 401 461 35,000  Level Fort Worth Center
01:42PM 33.2203 -96.9394 175° South 401 461 35,000  Level Fort Worth Center
01:43PM 33.1033 -96.9261 175° South 401 461 35,000  Level Fort Worth Center
01:44PM 32.9958 -96.9150 175° South 401 461 35,000  Level Fort Worth Center
01:45PM 32.8825 -96.9014 174° South 401 461 35,000  Level Fort Worth Center
01:47PM 32.7478 -96.8619 166° South 408 470 35,000  Level Fort Worth Center
01:48PM 32.6358 -96.8308 167° South 408 470 35,000  Level Fort Worth Center
01:49PM 32.5244 -96.7989 166° South 409 471 35,000  Level Fort Worth Center
01:50PM 32.4075 -96.7664 167° South 412 474 35,000  Level Fort Worth Center
01:51PM 32.2994 -96.7356 166° South 412 474 35,000  Level Fort Worth Center
01:52PM 32.1872 -96.7031 166° South 412 474 35,000  Level Fort Worth Center
01:53PM 32.0533 -96.6658 167° South 412 474 35,000 -387 Level Fort Worth Center
01:54PM 31.9417 -96.6347 167° South 412 474 34,200 -871 Descending Fort Worth Center
01:55PM 31.8303 -96.6028 166° South 412 474 33,200 -968 Descending Fort Worth Center
01:56PM 31.7200 -96.5717 167° South 412 474 32,200 -968 Descending Fort Worth Center
01:57PM 31.6061 -96.5389 166° South 411 473 31,200 -968 Descending Fort Worth Center
01:58PM 31.4967 -96.5078 166° South 407 468 30,200 -960 Descending Fort Worth Center
01:59PM 31.3869 -96.4656 162° South 411 473 29,200 -1,000 Descending Fort Worth Center
02:00PM 31.2747 -96.4219 162° South 421 484 28,200 -1,008 Descending Houston Center
02:01PM 31.1594 -96.3783 162° South 433 498 27,200 -1,065 Descending Houston Center
02:02PM 31.0194 -96.3269 163° South 437 503 26,000 -1,296 Descending Houston Center
02:03PM 30.9042 -96.2850 163° South 437 503 24,500 -1,440 Descending Houston Center
02:04PM 30.7997 -96.2267 154° Southeast 425 489 23,000 -1,500 Descending Houston Center
02:05PM 30.7083 -96.1308 138° Southeast 426 490 21,400 -1,500 Descending Houston Center
02:06PM 30.6233 -96.0408 138° Southeast 418 481 19,900 -1,565 Descending Houston Center
02:07PM 30.5614 -96.0225 166° South 357 411 19,000 -2,418 Descending Houston Center
02:07PM 30.5025 -96.0219 180° South 333 383 17,200 -3,306 Descending Houston Center
02:08PM 30.4550 -95.9306 121° Southeast 388 447 13,600 -2,550 Descending Houston Center
02:09PM 30.4214 -95.8442 114° Southeast 315 362 12,100 -2,033 Descending Houston Center
02:10PM 30.3622 -95.7853 139° Southeast 287 330 9,500 -1,984 Descending Houston Center
02:11PM 30.2922 -95.7850 180° South 257 296 8,000 -726 Descending Houston Center
02:12PM 30.2253 -95.7878 182° South 247 284 8,000  Level Houston Center
02:13PM 30.1444 -95.7900 181° South 216 249 8,000 -341 Level Houston Center
02:14PM 30.0900 -95.7917 182° South 173 199 7,300 -836 Descending Houston Center
02:15PM 30.0428 -95.7778 166° South 176 203 6,300 -976 Descending Houston Center
02:16PM 30.0072 -95.7336 133° Southeast 199 229 5,300 -634 Descending Houston Center
02:17PM 29.9914 -95.6728 107° East 219 252 5,000 -344 Descending Houston Center
02:18PM 29.9914 -95.6006 90° East 224 258 4,600 -689 Descending Houston Center
02:19PM 29.9917 -95.5353 90° East 185 213 3,600 -1,171 Descending Houston Center
02:21PM 29.9928 -95.4772 89° East 178 205 2,200 -1,073 Descending Houston Center
02:22PM 29.9922 -95.4244 91° East 144 166 1,400 -787 Descending Houston Center
02:23PM 29.9922 -95.3786 90° East 131 151 600 -451 Descending Houston Center
02:24PM 29.9942 -95.3319 87° East 155 178 400 -167 Descending Houston Center